World > North America > United States > Wisconsin
Hourly regional weather for Mellen, WisconsinMellen, Wisconsin Regional Hourly Weather

Mellen, Wisconsin Regional Weather

regional weather mellen, wiHOURLY REGIONAL WEATHER FOR MELLEN, WI
Lat: 46.32N, Lon: 90.66W 
Web Search
Mellen Weather Warning NWS WEATHER ALERT FOR THE MELLEN, WI AREA - Issued: 317 AM CST Mon Nov 29 2021 Mellen Weather Warning  

Helpful Tip: Abbreviated, 7 Day, 14 Day Forecasts. There is a weather forecast for every taste.

Feedback


°F Click to change Mellen hourly weather to Imperial units.Click to change Mellen hourly weather to Metric units. °C
Mellen Weather Map
UTC Time: 11/29/2021, 14:23
Your Time:

Mellen, WI Regional Weather

Expires:202111291500;;616792
ASUS43 KMKX 291420
RWRWI 

WISCONSIN REGIONAL WEATHER ROUNDUP
NATIONAL WEATHER SERVICE MILWAUKEE/SULLIVAN WI
800 AM CST MON NOV 29 2021

NOTE: "FAIR" INDICATES FEW OR NO CLOUDS BELOW 12,000 FEET WITH NO
SIGNIFICANT WEATHER AND/OR OBSTRUCTIONS TO VISIBILITY.


WIZ003>005-009-010-017-018-291500-
NORTH CENTRAL WISCONSIN
  
CITY           SKY/WX    TMP DP  RH WIND       PRES   REMARKS
MANITOWISH WTR CLOUDY    23  17  79 S6        29.88F WCI  15          
ARBOR VITAE    CLOUDY    24  -5  27 S6        29.89F WCI  17          
WOODRUFF       CLOUDY    24  -5  27 S6        29.89F WCI  17          
RHINELANDER    CLOUDY    20  16  84 CALM      29.91F                  
EAGLE RIVER    MOCLDY    18  17  98 CALM      29.90F                  
LAND O LAKES   CLOUDY    20  18  92 CALM      29.91F                  
PHILLIPS       FLURRIES  26  19  74 SE6       29.87F WCI  19          
TOMAHAWK       CLOUDY    24  19  82 CALM      29.91F VSB 1            
MEDFORD        CLOUDY    28  15  58 SE8       29.89F WCI  20          
MERRILL        LGT SNOW  24  18  80 CALM      29.92F                  
$$
 

SKY/WX - Weather  TMP - Temperature  DP - Dew Point  RH - Relative Humidity
WIND - Wind Direction/Speed PRES - Barometric Pressure VSB - Visibility
WCI - Wind Chill Index E13G22 Wind - East Wind 13 mph/Gusts of 22 mph